| time (UTC) | temp F | wind direction | speed MPH | gust MPH | rain 1hr in | rain 24hr in | rain mn in | humidity % | barometer mb |
| 20260506044510 | 52 | 165 | 0.0 | 5.0 | 0.00 | 0.00 | 0.00 | 81 | 1007.0 |
| 20260506043050 | 52 | 165 | 0.0 | 5.0 | 0.00 | 0.00 | 0.00 | 81 | 1006.9 |
| 20260506041531 | 53 | 221 | 1.0 | 5.0 | 0.00 | 0.00 | 0.00 | 81 | 1006.8 |
| 20260506040020 | 53 | 206 | 0.0 | 5.0 | 0.00 | 0.00 | 0.00 | 81 | 1006.8 |
| 20260506034511 | 53 | 192 | 0.0 | 4.0 | 0.00 | 0.00 | 0.00 | 81 | 1006.8 |
| 20260506033055 | 53 | 194 | 0.0 | 2.0 | 0.00 | 0.00 | 0.00 | 82 | 1006.8 |
| 20260506031543 | 52 | 141 | 0.0 | 4.0 | 0.00 | 0.00 | 0.00 | 81 | 1006.7 |
| 20260506030019 | 53 | 84 | 0.0 | 4.0 | 0.00 | 0.00 | 0.00 | 80 | 1006.8 |
| 20260506024613 | 53 | 180 | 0.0 | 3.0 | 0.00 | 0.00 | 0.00 | 79 | 1006.8 |
| 20260506023051 | 54 | 158 | 0.0 | 3.0 | 0.00 | 0.00 | 0.00 | 78 | 1006.8 |
| 20260506021519 | 54 | 165 | 0.0 | 0.0 | 0.00 | 0.00 | 0.00 | 77 | 1006.8 |
| 20260506020123 | 56 | 229 | 0.0 | 2.0 | 0.00 | 0.00 | 0.00 | 75 | 1006.9 |
| 20260506014534 | 56 | 171 | 0.0 | 0.0 | 0.00 | 0.00 | 0.00 | 73 | 1007.0 |
| 20260506013008 | 57 | 145 | 1.0 | 4.0 | 0.00 | 0.00 | 0.00 | 73 | 1006.9 |
| 20260506011549 | 58 | 152 | 0.0 | 3.0 | 0.00 | 0.00 | 0.00 | 72 | 1006.8 |
| 20260506010029 | 59 | 169 | 0.0 | 5.0 | 0.00 | 0.00 | 0.00 | 69 | 1006.6 |
| 20260506004602 | 61 | 163 | 0.0 | 1.0 | 0.00 | 0.00 | 0.00 | 66 | 1006.5 |
| 20260506003040 | 62 | 158 | 0.0 | 2.0 | 0.00 | 0.00 | 0.00 | 65 | 1006.4 |
| 20260506001529 | 62 | 219 | 0.0 | 4.0 | 0.00 | 0.00 | 0.00 | 63 | 1006.1 |
| 20260506000020 | 63 | 175 | 0.0 | 4.0 | 0.00 | 0.00 | 0.00 | 64 | 1005.4 |
| 20260505234607 | 64 | 171 | 1.0 | 5.0 | 0.00 | 0.00 | 0.00 | 62 | 1005.0 |
| 20260505233030 | 64 | 157 | 0.0 | 3.0 | 0.00 | 0.00 | 0.00 | 61 | 1004.9 |
| 20260505231508 | 63 | 250 | 0.0 | 9.0 | 0.00 | 0.00 | 0.00 | 63 | 1005.4 |
| 20260505230050 | 61 | 277 | 2.0 | 11.0 | 0.00 | 0.00 | 0.00 | 67 | 1005.8 |
| 20260505224524 | 60 | 244 | 3.0 | 14.0 | 0.00 | 0.00 | 0.00 | 66 | 1003.6 |
| 20260505223011 | 60 | 219 | 4.0 | 15.0 | 0.00 | 0.00 | 0.00 | 67 | 1003.4 |
| 20260505221557 | 61 | 232 | 5.0 | 14.0 | 0.00 | 0.00 | 0.00 | 66 | 1003.2 |
| 20260505220026 | 61 | 225 | 6.0 | 17.0 | 0.00 | 0.00 | 0.00 | 65 | 1003.0 |
| 20260505214502 | 61 | 221 | 3.0 | 12.0 | 0.00 | 0.00 | 0.00 | 66 | 1003.0 |
| 20260505213042 | 59 | 167 | 2.0 | 15.0 | 0.00 | 0.00 | 0.00 | 69 | 1003.1 |
| 20260505211543 | 58 | 187 | 5.0 | 14.0 | 0.00 | 0.00 | 0.00 | 70 | 1002.9 |
| 20260505210005 | 60 | 257 | 4.0 | 14.0 | 0.00 | 0.00 | 0.00 | 68 | 1002.9 |
| 20260505204557 | 62 | 178 | 2.0 | 15.0 | 0.00 | 0.00 | 0.00 | 66 | 1002.8 |
| 20260505203021 | 62 | 215 | 4.0 | 11.0 | 0.00 | 0.00 | 0.00 | 66 | 1003.0 |
| 20260505201602 | 63 | 164 | 1.0 | 11.0 | 0.00 | 0.00 | 0.00 | 66 | 1003.0 |
| 20260505200038 | 62 | 241 | 3.0 | 15.0 | 0.00 | 0.00 | 0.00 | 66 | 1003.2 |
| 20260505194512 | 62 | 163 | 4.0 | 15.0 | 0.00 | 0.00 | 0.00 | 67 | 1003.3 |
| 20260505193053 | 62 | 109 | 2.0 | 15.0 | 0.00 | 0.00 | 0.00 | 68 | 1003.6 |
| 20260505191540 | 61 | 180 | 2.0 | 11.0 | 0.00 | 0.00 | 0.00 | 68 | 1003.9 |
| 20260505190024 | 61 | 226 | 2.0 | 10.0 | 0.00 | 0.00 | 0.00 | 68 | 1004.3 |
| 20260505184559 | 61 | 197 | 5.0 | 16.0 | 0.00 | 0.00 | 0.00 | 67 | 1004.3 |
| 20260505183038 | 63 | 226 | 3.0 | 13.0 | 0.00 | 0.00 | 0.00 | 65 | 1004.4 |
| 20260505181513 | 61 | 239 | 2.0 | 11.0 | 0.00 | 0.00 | 0.00 | 68 | 1004.3 |
| 20260505174539 | 60 | 244 | 4.0 | 13.0 | 0.00 | 0.00 | 0.00 | 68 | 1004.7 |
| 20260505173025 | 60 | 210 | 3.0 | 11.0 | 0.00 | 0.00 | 0.00 | 69 | 1004.9 |
| 20260505171505 | 61 | 251 | 1.0 | 10.0 | 0.00 | 0.00 | 0.00 | 68 | 1005.0 |
| 20260505170043 | 61 | 190 | 2.0 | 8.0 | 0.00 | 0.00 | 0.00 | 69 | 1005.5 |
| 20260505164519 | 61 | 163 | 2.0 | 9.0 | 0.00 | 0.00 | 0.00 | 68 | 1005.7 |
| 20260505163058 | 61 | 90 | 1.0 | 7.0 | 0.00 | 0.00 | 0.00 | 69 | 1005.7 |
| 20260505161534 | 60 | 240 | 2.0 | 10.0 | 0.00 | 0.00 | 0.00 | 69 | 1006.1 |
| 20260505153049 | 61 | 134 | 1.0 | 8.0 | 0.00 | 0.00 | 0.00 | 70 | 1006.7 |
| 20260505151536 | 60 | 186 | 2.0 | 7.0 | 0.00 | 0.00 | 0.00 | 73 | 1006.8 |
| 20260505124551 | 53 | 201 | 3.0 | 9.0 | 0.00 | 0.00 | 0.00 | 79 | 1006.8 |
| 20260505123032 | 52 | 188 | 0.0 | 7.0 | 0.00 | 0.00 | 0.00 | 81 | 1006.7 |
| 20260505121512 | 51 | 202 | 2.0 | 7.0 | 0.00 | 0.00 | 0.00 | 82 | 1006.9 |
| 20260505120109 | 51 | 139 | 1.0 | 8.0 | 0.00 | 0.00 | 0.00 | 84 | 1007.0 |
| 20260505114531 | 50 | 175 | 1.0 | 6.0 | 0.00 | 0.00 | 0.00 | 84 | 1007.2 |
| 20260505113019 | 49 | 155 | 2.0 | 5.0 | 0.00 | 0.00 | 0.00 | 85 | 1007.4 |
| 20260505111508 | 49 | 131 | 1.0 | 6.0 | 0.00 | 0.00 | 0.00 | 84 | 1007.3 |
| 20260505110104 | 49 | 157 | 0.0 | 5.0 | 0.00 | 0.00 | 0.00 | 84 | 1007.0 |
| 20260505101550 | 48 | 174 | 0.0 | 2.0 | 0.00 | 0.00 | 0.00 | 85 | 1007.2 |
| 20260505100032 | 47 | 135 | 0.0 | 4.0 | 0.00 | 0.00 | 0.00 | 85 | 1007.0 |
| 20260505094515 | 47 | 158 | 0.0 | 2.0 | 0.00 | 0.00 | 0.00 | 85 | 1007.2 |
| 20260505093053 | 46 | 141 | 0.0 | 3.0 | 0.00 | 0.00 | 0.00 | 85 | 1007.0 |
| 20260505091551 | 46 | 180 | 0.0 | 3.0 | 0.00 | 0.00 | 0.00 | 85 | 1007.1 |
| 20260505090022 | 46 | 150 | 0.0 | 0.0 | 0.00 | 0.00 | 0.00 | 84 | 1007.2 |
| 20260505084502 | 46 | 137 | 0.0 | 0.0 | 0.00 | 0.00 | 0.00 | 83 | 1007.3 |
| 20260505083054 | 47 | 137 | 0.0 | 1.0 | 0.00 | 0.00 | 0.00 | 82 | 1007.4 |
| 20260505081521 | 47 | 148 | 0.0 | 2.0 | 0.00 | 0.00 | 0.00 | 81 | 1007.4 |
| 20260505080058 | 48 | 158 | 0.0 | 0.0 | 0.00 | 0.00 | 0.00 | 79 | 1007.6 |
| 20260505074527 | 48 | 170 | 0.0 | 0.0 | 0.00 | 0.00 | 0.00 | 78 | 1007.5 |
| 20260505073103 | 49 | 147 | 0.0 | 2.0 | 0.00 | 0.00 | 0.00 | 77 | 1007.5 |
| 20260505071541 | 49 | 146 | 0.0 | 0.0 | 0.00 | 0.00 | 0.00 | 76 | 1007.5 |
| 20260505070018 | 50 | 146 | 0.0 | 3.0 | 0.00 | 0.00 | 0.00 | 74 | 1007.5 |
| 20260505064639 | 51 | 161 | 0.0 | 4.0 | 0.00 | 0.00 | 0.00 | 71 | 1007.3 |
| 20260505063039 | 53 | 151 | 0.0 | 3.0 | 0.00 | 0.00 | 0.00 | 67 | 1007.2 |
| 20260505061515 | 57 | 220 | 0.0 | 5.0 | 0.00 | 0.00 | 0.00 | 59 | 1007.2 |
| 20260505060053 | 58 | 235 | 0.0 | 5.0 | 0.00 | 0.00 | 0.00 | 55 | 1007.2 |